• In Germany
  • List of Countries
  • For 7 days
  • Water Temperature
  • Satellite Maps
  • Weather Map
  • Weather Widgets
  • user-avatar
    Login

    Hourly Weather Biskira

    Today, 26 April, Wednesday

    Time Temperature Precipitation Wind Pressure Humidity
    00:00 +25°C° 0 mm 2 mps 749 mmHg 33%
    01:00 +24°C° 0 mm 2 mps 748 mmHg 38%
    02:00 +22°C° 0 mm 3 mps 748 mmHg 43%
    03:00 +22°C° 0 mm 3 mps 748 mmHg 48%
    04:00 +23°C° 0 mm 2 mps 748 mmHg 50%
    05:00 +23°C° 0 mm 2 mps 748 mmHg 51%
    06:00 +23°C° 0 mm 2 mps 749 mmHg 49%
    07:00 +25°C° 0 mm 3 mps 749 mmHg 45%
    08:00 +26°C° 0 mm 3 mps 749 mmHg 41%
    09:00 +27°C° 0 mm 3 mps 749 mmHg 37%
    10:00 +28°C° 0 mm 4 mps 749 mmHg 34%
    11:00 +30°C° 0 mm 4 mps 748 mmHg 30%
    12:00 +32°C° 0 mm 4 mps 748 mmHg 27%
    13:00 +32°C° 0 mm 4 mps 748 mmHg 26%
    14:00 +33°C° 0 mm 4 mps 747 mmHg 25%
    15:00 +33°C° 0 mm 5 mps 747 mmHg 23%
    16:00 +33°C° 0 mm 4 mps 747 mmHg 25%
    17:00 +32°C° 0 mm 4 mps 747 mmHg 26%
    18:00 +32°C° 0 mm 4 mps 747 mmHg 27%
    19:00 +30°C° 0.1 mm 5 mps 747 mmHg 29%
    20:00 +29°C° 0.1 mm 5 mps 747 mmHg 30%
    21:00 +28°C° 0.1 mm 5 mps 748 mmHg 32%
    22:00 +28°C° 0 mm 5 mps 748 mmHg 33%
    23:00 +28°C° 0 mm 5 mps 748 mmHg 34%

    Tomorrow, 27 April, Thursday

    Time Temperature Precipitation Wind Pressure Humidity
    00:00 +27°C° 0 mm 5 mps 748 mmHg 35%
    01:00 +27°C° 0.1 mm 5 mps 747 mmHg 36%
    02:00 +26°C° 0.1 mm 5 mps 747 mmHg 38%
    03:00 +26°C° 0.1 mm 5 mps 747 mmHg 39%
    04:00 +25°C° 0 mm 5 mps 747 mmHg 40%
    05:00 +24°C° 0 mm 6 mps 747 mmHg 40%
    06:00 +24°C° 0 mm 6 mps 747 mmHg 41%
    07:00 +27°C° 0 mm 6 mps 747 mmHg 37%
    08:00 +28°C° 0 mm 7 mps 748 mmHg 33%
    09:00 +30°C° 0 mm 7 mps 748 mmHg 30%
    10:00 +32°C° 0 mm 7 mps 747 mmHg 26%
    11:00 +33°C° 0 mm 7 mps 747 mmHg 23%
    12:00 +35°C° 0 mm 6 mps 747 mmHg 19%
    13:00 +36°C° 0 mm 7 mps 746 mmHg 17%
    14:00 +38°C° 0 mm 7 mps 746 mmHg 15%
    15:00 +39°C° 0 mm 7 mps 745 mmHg 13%
    16:00 +38°C° 0 mm 7 mps 745 mmHg 13%
    17:00 +36°C° 0 mm 7 mps 744 mmHg 13%
    18:00 +36°C° 0 mm 6 mps 744 mmHg 14%
    19:00 +35°C° 0 mm 6 mps 745 mmHg 17%
    20:00 +33°C° 0 mm 6 mps 746 mmHg 20%
    21:00 +32°C° 0 mm 6 mps 746 mmHg 23%
    22:00 +30°C° 0 mm 6 mps 747 mmHg 27%
    23:00 +28°C° 0 mm 6 mps 747 mmHg 32%

    Day after tomorrow, 28 April, Friday

    Time Temperature Precipitation Wind Pressure Humidity
    00:00 +27°C° 0 mm 6 mps 747 mmHg 36%
    01:00 +26°C° 0 mm 7 mps 747 mmHg 40%
    02:00 +24°C° 0 mm 7 mps 747 mmHg 44%
    03:00 +23°C° 0 mm 7 mps 747 mmHg 47%
    04:00 +23°C° 0 mm 7 mps 747 mmHg 47%
    05:00 +23°C° 0 mm 6 mps 747 mmHg 47%
    06:00 +23°C° 0 mm 6 mps 747 mmHg 47%
    07:00 +26°C° 0 mm 6 mps 747 mmHg 41%
    08:00 +28°C° 0 mm 5 mps 748 mmHg 35%
    09:00 +29°C° 0 mm 5 mps 748 mmHg 30%
    10:00 +32°C° 0 mm 5 mps 748 mmHg 27%
    11:00 +33°C° 0 mm 4 mps 747 mmHg 24%
    12:00 +34°C° 0 mm 4 mps 747 mmHg 21%
    13:00 +34°C° 0 mm 3 mps 746 mmHg 20%
    14:00 +35°C° 0 mm 3 mps 746 mmHg 20%
    15:00 +35°C° 0 mm 3 mps 745 mmHg 19%
    16:00 +35°C° 0 mm 3 mps 745 mmHg 20%
    17:00 +34°C° 0 mm 2 mps 746 mmHg 21%
    18:00 +32°C° 0 mm 2 mps 746 mmHg 22%
    19:00 +31°C° 0 mm 3 mps 746 mmHg 27%
    20:00 +29°C° 0 mm 4 mps 747 mmHg 32%
    21:00 +28°C° 0 mm 5 mps 747 mmHg 37%
    22:00 +27°C° 0.1 mm 5 mps 747 mmHg 43%
    23:00 +26°C° 0.1 mm 5 mps 748 mmHg 48%

    29 April, Saturday

    Time Temperature Precipitation Wind Pressure Humidity
    00:00 +23°C° 0.1 mm 5 mps 748 mmHg 53%
    01:00 +23°C° 0.1 mm 5 mps 748 mmHg 54%
    02:00 +23°C° 0.1 mm 4 mps 748 mmHg 55%
    03:00 +22°C° 0.1 mm 3 mps 747 mmHg 56%
    04:00 +22°C° 0 mm 3 mps 748 mmHg 56%
    05:00 +22°C° 0 mm 3 mps 748 mmHg 56%
    06:00 +22°C° 0 mm 3 mps 748 mmHg 56%
    07:00 +24°C° 0 mm 3 mps 748 mmHg 54%
    08:00 +24°C° 0 mm 2 mps 749 mmHg 51%
    09:00 +25°C° 0 mm 2 mps 749 mmHg 48%
    10:00 +26°C° 0 mm 2 mps 748 mmHg 45%
    11:00 +27°C° 0 mm 2 mps 748 mmHg 41%
    12:00 +28°C° 0 mm 2 mps 748 mmHg 37%
    13:00 +29°C° 0.1 mm 2 mps 748 mmHg 35%
    14:00 +29°C° 0.1 mm 2 mps 747 mmHg 34%
    15:00 +30°C° 0.1 mm 2 mps 747 mmHg 32%
    16:00 +30°C° 0.1 mm 2 mps 747 mmHg 32%
    17:00 +30°C° 0.1 mm 2 mps 747 mmHg 33%
    18:00 +29°C° 0.1 mm 2 mps 747 mmHg 34%
    19:00 +29°C° 0.2 mm 2 mps 748 mmHg 36%
    20:00 +28°C° 0.2 mm 2 mps 748 mmHg 39%
    21:00 +27°C° 0.2 mm 3 mps 749 mmHg 41%
    22:00 +27°C° 0.2 mm 2 mps 749 mmHg 43%
    23:00 +26°C° 0.2 mm 2 mps 749 mmHg 46%

    30 April, Sunday

    Time Temperature Precipitation Wind Pressure Humidity
    00:00 +25°C° 0.2 mm 1 mps 749 mmHg 48%
    01:00 +24°C° 0.3 mm 2 mps 749 mmHg 51%
    02:00 +24°C° 0.3 mm 3 mps 749 mmHg 54%
    03:00 +22°C° 0.3 mm 4 mps 749 mmHg 57%
    04:00 +22°C° 0.2 mm 4 mps 750 mmHg 57%
    05:00 +21°C° 0.2 mm 3 mps 750 mmHg 57%
    06:00 +21°C° 0.2 mm 3 mps 750 mmHg 57%
    07:00 +22°C° 0 mm 3 mps 750 mmHg 52%
    08:00 +25°C° 0 mm 3 mps 750 mmHg 47%
    09:00 +26°C° 0 mm 3 mps 750 mmHg 42%
    10:00 +27°C° 0 mm 4 mps 750 mmHg 39%
    11:00 +28°C° 0 mm 4 mps 749 mmHg 35%
    12:00 +30°C° 0 mm 4 mps 748 mmHg 31%
    13:00 +30°C° 0 mm 4 mps 748 mmHg 30%
    14:00 +32°C° 0 mm 4 mps 748 mmHg 28%
    15:00 +32°C° 0 mm 4 mps 747 mmHg 27%
    16:00 +31°C° 0.1 mm 3 mps 748 mmHg 28%
    17:00 +31°C° 0.1 mm 2 mps 748 mmHg 29%
    18:00 +30°C° 0.1 mm 2 mps 748 mmHg 30%
    19:00 +29°C° 0 mm 2 mps 748 mmHg 32%
    20:00 +28°C° 0 mm 2 mps 748 mmHg 34%
    21:00 +28°C° 0 mm 2 mps 749 mmHg 36%
    22:00 +27°C° 0 mm 2 mps 749 mmHg 38%
    23:00 +26°C° 0 mm 2 mps 749 mmHg 39%

    1 May, Monday

    Time Temperature Precipitation Wind Pressure Humidity
    00:00 +26°C° 0 mm 2 mps 749 mmHg 41%
    01:00 +25°C° 0 mm 2 mps 749 mmHg 44%
    02:00 +24°C° 0 mm 2 mps 749 mmHg 48%
    03:00 +24°C° 0 mm 2 mps 749 mmHg 51%
    04:00 +24°C° 0 mm 2 mps 750 mmHg 51%
    05:00 +24°C° 0 mm 1 mps 750 mmHg 52%
    06:00 +24°C° 0 mm 1 mps 751 mmHg 52%
    07:00 +25°C° 0 mm 1 mps 751 mmHg 48%
    08:00 +27°C° 0 mm 2 mps 751 mmHg 43%
    09:00 +28°C° 0 mm 2 mps 752 mmHg 39%
    10:00 +29°C° 0 mm 3 mps 751 mmHg 36%
    11:00 +30°C° 0 mm 3 mps 751 mmHg 33%
    12:00 +31°C° 0 mm 3 mps 751 mmHg 30%
    13:00 +33°C° 0 mm 3 mps 751 mmHg 28%
    14:00 +33°C° 0 mm 3 mps 750 mmHg 26%
    15:00 +34°C° 0 mm 3 mps 750 mmHg 24%
    16:00 +33°C° 0 mm 3 mps 750 mmHg 25%
    17:00 +33°C° 0 mm 4 mps 751 mmHg 26%
    18:00 +32°C° 0 mm 4 mps 751 mmHg 27%
    19:00 +30°C° 0 mm 4 mps 752 mmHg 31%
    20:00 +29°C° 0 mm 4 mps 752 mmHg 36%
    21:00 +28°C° 0 mm 4 mps 753 mmHg 40%
    22:00 +27°C° 0 mm 4 mps 753 mmHg 42%
    23:00 +27°C° 0 mm 4 mps 753 mmHg 44%
    Show more